• în România
  • Lista ţărilor
  • Pe 7 zile
  • Temperatura apei
  • Hartă satelitară
  • Meteo pe hartă
  • Widget-uri
  • user-avatar
    Intrare

    Meteo pe oră la Pavlova Luka

    Astăzi, 19 Aprilie, Joi

    Timp Temperatura Precipitaţii Vânt Presiune Umiditate
    00:00 +6°C° 0,3 mm 5 m/s 743 mmHg 89%
    01:00 +6°C° 0,3 mm 5 m/s 743 mmHg 90%
    02:00 +7°C° 0 mm 3 m/s 743 mmHg 90%
    03:00 +6°C° 0,4 mm 4 m/s 743 mmHg 90%
    04:00 +6°C° 0,4 mm 5 m/s 743 mmHg 90%
    05:00 +5°C° 0,4 mm 5 m/s 743 mmHg 90%
    06:00 +5°C° 0,5 mm 5 m/s 743 mmHg 90%
    07:00 +5°C° 0,5 mm 5 m/s 743 mmHg 90%
    08:00 +5°C° 0 mm 5 m/s 743 mmHg 89%
    09:00 +6°C° 0,3 mm 5 m/s 743 mmHg 88%
    10:00 +6°C° 0,3 mm 5 m/s 744 mmHg 87%
    11:00 +6°C° 0,3 mm 5 m/s 744 mmHg 86%
    12:00 +7°C° 0,1 mm 5 m/s 744 mmHg 84%
    13:00 +7°C° 0,1 mm 5 m/s 744 mmHg 82%
    14:00 +8°C° 0,1 mm 5 m/s 744 mmHg 81%
    15:00 +8°C° 0 mm 4 m/s 745 mmHg 78%
    16:00 +10°C° 0 mm 4 m/s 745 mmHg 75%
    17:00 +10°C° 0 mm 4 m/s 745 mmHg 72%
    18:00 +10°C° 0 mm 4 m/s 745 mmHg 74%
    19:00 +8°C° 0 mm 4 m/s 746 mmHg 76%
    20:00 +8°C° 0 mm 3 m/s 746 mmHg 78%
    21:00 +7°C° 0 mm 3 m/s 746 mmHg 80%
    22:00 +7°C° 0 mm 3 m/s 747 mmHg 81%
    23:00 +7°C° 0 mm 3 m/s 747 mmHg 83%

    Mâine, 20 Aprilie, Vineri

    Timp Temperatura Precipitaţii Vânt Presiune Umiditate
    00:00 +5°C° 0 mm 3 m/s 747 mmHg 86%
    01:00 +5°C° 0 mm 3 m/s 748 mmHg 89%
    02:00 +4°C° 0 mm 3 m/s 748 mmHg 92%
    03:00 +4°C° 0 mm 3 m/s 748 mmHg 93%
    04:00 +4°C° 0 mm 3 m/s 748 mmHg 95%
    05:00 +4°C° 0 mm 3 m/s 748 mmHg 96%
    06:00 +4°C° 0 mm 3 m/s 749 mmHg 92%
    07:00 +5°C° 0 mm 3 m/s 749 mmHg 88%
    08:00 +7°C° 0 mm 3 m/s 749 mmHg 84%
    09:00 +8°C° 0 mm 3 m/s 749 mmHg 81%
    10:00 +8°C° 0 mm 3 m/s 749 mmHg 78%
    11:00 +9°C° 0 mm 3 m/s 749 mmHg 75%
    12:00 +10°C° 0 mm 3 m/s 749 mmHg 70%
    13:00 +12°C° 0 mm 2 m/s 749 mmHg 65%
    14:00 +13°C° 0 mm 2 m/s 749 mmHg 59%
    15:00 +13°C° 0 mm 2 m/s 748 mmHg 59%
    16:00 +13°C° 0 mm 2 m/s 748 mmHg 59%
    17:00 +14°C° 0 mm 2 m/s 747 mmHg 58%
    18:00 +12°C° 0 mm 2 m/s 747 mmHg 65%
    19:00 +9°C° 0 mm 2 m/s 747 mmHg 72%
    20:00 +8°C° 0 mm 2 m/s 746 mmHg 79%
    21:00 +8°C° 0 mm 2 m/s 745 mmHg 79%
    22:00 +8°C° 0 mm 3 m/s 745 mmHg 79%
    23:00 +8°C° 0 mm 3 m/s 744 mmHg 79%

    Poimâine, 21 Aprilie, Sâmbătă

    Timp Temperatura Precipitaţii Vânt Presiune Umiditate
    00:00 +8°C° 0 mm 3 m/s 743 mmHg 80%
    01:00 +7°C° 0 mm 4 m/s 742 mmHg 81%
    02:00 +8°C° 0 mm 4 m/s 741 mmHg 82%
    03:00 +8°C° 0 mm 4 m/s 740 mmHg 85%
    04:00 +7°C° 0 mm 4 m/s 739 mmHg 88%
    05:00 +7°C° 0 mm 4 m/s 738 mmHg 91%
    06:00 +9°C° 0 mm 5 m/s 737 mmHg 87%
    07:00 +10°C° 0 mm 5 m/s 736 mmHg 83%
    08:00 +11°C° 0 mm 6 m/s 735 mmHg 79%
    09:00 +11°C° 0,2 mm 6 m/s 735 mmHg 79%
    10:00 +13°C° 0,2 mm 6 m/s 734 mmHg 80%
    11:00 +13°C° 0,2 mm 6 m/s 733 mmHg 80%
    12:00 +12°C° 0,2 mm 7 m/s 733 mmHg 74%
    13:00 +12°C° 0,2 mm 7 m/s 733 mmHg 68%
    14:00 +12°C° 0,2 mm 8 m/s 733 mmHg 62%
    15:00 +11°C° 0 mm 7 m/s 734 mmHg 61%
    16:00 +10°C° 0 mm 7 m/s 734 mmHg 60%
    17:00 +9°C° 0 mm 6 m/s 734 mmHg 59%
    18:00 +8°C° 0 mm 6 m/s 735 mmHg 63%
    19:00 +8°C° 0 mm 5 m/s 735 mmHg 67%
    20:00 +7°C° 0 mm 4 m/s 736 mmHg 72%
    21:00 +6°C° 0 mm 4 m/s 736 mmHg 74%
    22:00 +6°C° 0 mm 4 m/s 736 mmHg 77%
    23:00 +5°C° 0 mm 4 m/s 737 mmHg 79%

    22 Aprilie, Duminică

    Timp Temperatura Precipitaţii Vânt Presiune Umiditate
    00:00 +5°C° 0 mm 4 m/s 737 mmHg 79%
    01:00 +5°C° 0 mm 4 m/s 737 mmHg 80%
    02:00 +5°C° 0 mm 4 m/s 737 mmHg 80%
    03:00 +5°C° 0,1 mm 4 m/s 738 mmHg 81%
    04:00 +5°C° 0,1 mm 4 m/s 738 mmHg 82%
    05:00 +4°C° 0,1 mm 4 m/s 738 mmHg 82%
    06:00 +5°C° 0,2 mm 4 m/s 738 mmHg 82%
    07:00 +5°C° 0,2 mm 4 m/s 739 mmHg 81%
    08:00 +5°C° 0,2 mm 4 m/s 739 mmHg 80%
    09:00 +5°C° 0,1 mm 4 m/s 739 mmHg 78%
    10:00 +6°C° 0,1 mm 4 m/s 739 mmHg 75%
    11:00 +7°C° 0,1 mm 4 m/s 739 mmHg 72%
    12:00 +7°C° 0,3 mm 4 m/s 739 mmHg 68%
    13:00 +8°C° 0,3 mm 4 m/s 739 mmHg 65%
    14:00 +9°C° 0,3 mm 5 m/s 739 mmHg 61%
    15:00 +10°C° 0,5 mm 4 m/s 739 mmHg 63%
    16:00 +8°C° 0,5 mm 4 m/s 739 mmHg 66%
    17:00 +8°C° 0,5 mm 4 m/s 739 mmHg 68%
    18:00 +7°C° 0,2 mm 3 m/s 740 mmHg 74%
    19:00 +6°C° 0,2 mm 2 m/s 740 mmHg 81%
    20:00 +6°C° 0,2 mm 1 m/s 740 mmHg 87%
    21:00 +5°C° 0 mm 1 m/s 741 mmHg 90%
    22:00 +5°C° 0 mm 1 m/s 741 mmHg 92%
    23:00 +4°C° 0 mm 1 m/s 741 mmHg 95%

    23 Aprilie, Luni

    Timp Temperatura Precipitaţii Vânt Presiune Umiditate
    00:00 +3°C° 0 mm 1 m/s 742 mmHg 95%
    01:00 +3°C° 0 mm 1 m/s 742 mmHg 94%
    02:00 +2°C° 0 mm 1 m/s 742 mmHg 94%
    03:00 +2°C° 0 mm 1 m/s 743 mmHg 93%
    04:00 +1°C° 0 mm 1 m/s 743 mmHg 92%
    05:00 +1°C° 0 mm 1 m/s 743 mmHg 91%
    06:00 +3°C° 0 mm 1 m/s 743 mmHg 83%
    07:00 +5°C° 0 mm 1 m/s 744 mmHg 75%
    08:00 +7°C° 0 mm 1 m/s 744 mmHg 67%
    09:00 +7°C° 0 mm 0 m/s 744 mmHg 61%
    10:00 +9°C° 0 mm 0 m/s 744 mmHg 54%
    11:00 +11°C° 0 mm 0 m/s 744 mmHg 48%
    12:00 +11°C° 0 mm 0 m/s 744 mmHg 47%
    13:00 +12°C° 0 mm 1 m/s 744 mmHg 46%
    14:00 +12°C° 0 mm 1 m/s 744 mmHg 44%
    15:00 +11°C° 0 mm 1 m/s 743 mmHg 46%
    16:00 +11°C° 0 mm 1 m/s 743 mmHg 47%
    17:00 +11°C° 0 mm 1 m/s 743 mmHg 48%
    18:00 +9°C° 0 mm 1 m/s 743 mmHg 53%
    19:00 +8°C° 0 mm 1 m/s 743 mmHg 58%
    20:00 +7°C° 0 mm 1 m/s 743 mmHg 63%
    21:00 +7°C° 0 mm 1 m/s 742 mmHg 65%
    22:00 +6°C° 0 mm 1 m/s 742 mmHg 68%
    23:00 +6°C° 0 mm 1 m/s 742 mmHg 70%

    24 Aprilie, Marţi

    Timp Temperatura Precipitaţii Vânt Presiune Umiditate
    00:00 +5°C° 0 mm 1 m/s 742 mmHg 73%
    01:00 +4°C° 0 mm 2 m/s 741 mmHg 75%
    02:00 +3°C° 0 mm 2 m/s 741 mmHg 77%
    03:00 +3°C° 0 mm 2 m/s 740 mmHg 77%
    04:00 +3°C° 0 mm 3 m/s 740 mmHg 77%
    05:00 +3°C° 0 mm 3 m/s 739 mmHg 78%
    06:00 +3°C° 0,3 mm 3 m/s 739 mmHg 77%
    07:00 +4°C° 0,3 mm 4 m/s 738 mmHg 76%
    08:00 +5°C° 0,3 mm 4 m/s 737 mmHg 75%
    09:00 +5°C° 0,8 mm 5 m/s 737 mmHg 79%
    10:00 +5°C° 0,8 mm 5 m/s 737 mmHg 82%
    11:00 +5°C° 0,8 mm 5 m/s 736 mmHg 86%
    12:00 +5°C° 0,6 mm 4 m/s 736 mmHg 87%
    13:00 +6°C° 0,6 mm 4 m/s 736 mmHg 89%
    14:00 +7°C° 0,6 mm 3 m/s 736 mmHg 90%
    15:00 +7°C° 0,1 mm 3 m/s 735 mmHg 90%
    16:00 +8°C° 0,1 mm 2 m/s 735 mmHg 89%
    17:00 +9°C° 0,1 mm 2 m/s 735 mmHg 88%
    18:00 +8°C° 0,2 mm 2 m/s 735 mmHg 91%
    19:00 +7°C° 0,2 mm 2 m/s 735 mmHg 93%
    20:00 +7°C° 0,2 mm 2 m/s 735 mmHg 95%
    21:00 +7°C° 0,1 mm 2 m/s 735 mmHg 95%
    22:00 +6°C° 0,1 mm 2 m/s 735 mmHg 95%
    23:00 +6°C° 0,1 mm 2 m/s 735 mmHg 95%
    Arată mai mult